Location: Newark
(12.6500°N, 8.0000°W)
Time: 07:51:16
(UTC+00:00)

ISS - Visible Passes

Search period start: 19 October 2019 00:00
Search period end: 29 October 2019 00:00
Orbit: 411 x 421 km, 51.6° (Epoch: 19 October)

Date Brightness Start Highest point End Pass type
(mag) Time Alt. Az. Time Alt. Az. Time Alt. Az.
19 Oct -0.5 05:29:50 10° SSE 05:31:32 13° SE 05:33:14 10° E visible
21 Oct -3.3 05:27:42 10° SSW 05:31:00 63° SE 05:34:20 10° NE visible
22 Oct -1.7 04:41:59 24° SE 04:42:32 26° SE 04:45:23 10° ENE visible
23 Oct -2.6 05:30:13 24° WNW 05:30:33 24° NW 05:33:21 10° N visible
24 Oct -0.9 04:45:04 11° NNE 04:45:04 11° NNE 04:45:17 10° NNE visible
